Location: Hobi?a Gr?di?te
(45.4833°N, 22.7833°E)
Time: 04:46:15
(UTC+00:00)

SJ-11-01 - Pass Details

Date: 28 January 2023
Orbit: 681 x 699 km, 97.9° (Epoch: 29 March)

Event Time Altitude Azimuth Distance (km) Brightness Sun altitude
Rises 15:52:28 0° 163° (SSE) 3,043 7.7 -4.6°
Reaches altitude 10° 15:54:42 10° 163° (SSE) 2,134 6.9 -4.9°
Maximum altitude 15:59:23 85° 76° (ENE) 702 4.3 -5.7°
Drops below altitude 10° 16:04:07 10° 348° (NNW) 2,163 6.8 -6.5°
Sets 16:06:23 0° 348° (NNW) 3,088 7.6 -6.9°
